Location: Seven Kings
(51.5667°N, 0.1000°E)
Time: 01:59:37
(UTC+00:00)

USA 215 - Pass Details

Date: 29 October 2020
Orbit: 1102 x 1106 km, 123.0° (Epoch: 23 November)

Event Time Altitude Azimuth Distance (km) Brightness Sun altitude
Exits shadow 19:57:29 86° 18° (NNE) 1,111 3.1 -31.4°
Drops below altitude 10° 20:04:02 10° 299° (WNW) 2,967 6.4 -32.3°
Sets 20:06:31 0° 299° (WNW) 3,927 7.2 -32.7°
